Regional Weather Roundup
Issued by NWS

Home | Current Version | Previous Version | Text Only | Print | Product List | Glossary On
Versions: 1 2 3 4 5 6 7 8 9 10 11 12 13 14 15 16 17 18 19 20 21 22 23 24 25 26 27 28 29 30 31 32 33 34 35 36 37 38 39 40 41 42 43 44 45 46 47 48 49 50
000
ASUS43 KOAX 012210
RWRNE

WEATHER ROUNDUP FOR NEBRASKA
NATIONAL WEATHER SERVICE OMAHA NE
500 PM CDT FRI AUG 01 2014

NOTES: SATELLITE DATA IS BEING USED TO AUGMENT CLOUD COVER ABOVE
       12000 FEET.
       "FAIR" INDICATES FEW OR NO CLOUDS BELOW 12,000 FEET WITH NO
       SIGNIFICANT WEATHER AND/OR OBSTRUCTIONS TO VISIBILITY.

  * THESE STATIONS DO NOT REPORT WEATHER SUCH AS RAIN...SNOW OR FOG.

NEZ001>004-019>022-054>056-012300-
NEBRASKA PANHANDLE

CITY           SKY/WX    TMP DP  RH WIND       PRES   REMARKS
SCOTTSBLUFF    SUNNY     89  38  16 E9        30.15F
ALLIANCE       MOSUNNY   86  37  17 SE8       30.14F
CHADRON        MOSUNNY   95  37  13 W13       30.07F HX  90
KIMBALL        PTSUNNY   83  42  23 SE10G17   30.22S
SIDNEY         PTSUNNY   85  39  19 SE12      30.19S
$$

NEZ057>060-069>072-079>082-012300-
SOUTHWEST NEBRASKA

CITY           SKY/WX    TMP DP  RH WIND       PRES   REMARKS
NORTH PLATTE   MOSUNNY   87  49  26 CALM      30.10F
IMPERIAL       SUNNY     89  41  18 NE6       30.13F
LEXINGTON      SUNNY     87  56  34 SE7       30.10F
MCCOOK         SUNNY     90  48  23 SE5       30.10F
OGALLALA       SUNNY     89  44  21 SE6       30.12F
$$

NEZ005>010-023>029-035>040-094-012300-
NORTH CENTRAL NEBRASKA

CITY           SKY/WX    TMP DP  RH WIND       PRES   REMARKS
VALENTINE      SUNNY     93  46  19 VRB3      30.06F
AINSWORTH      SUNNY     87  56  35 E10       30.08F
BROKEN BOW     MOSUNNY   88  59  37 SE9       30.10F
O`NEILL        SUNNY     84  56  38 E8        30.10F
ORD            SUNNY     84  55  36 SE7       30.09F
THEDFORD       SUNNY     91  49  23 E5        30.10S
$$

NEZ041-046>049-061>064-073>077-083>087-012300-
SOUTH CENTRAL NEBRASKA

CITY           SKY/WX    TMP DP  RH WIND       PRES   REMARKS
GRAND ISLAND   SUNNY     83  56  39 NE12G17   30.11S
AURORA         SUNNY     82  61  49 NE6       30.10F
HASTINGS       SUNNY     83  53  35 NE13      30.10F
HEBRON         SUNNY     83  57  40 N8        30.07F
HOLDREGE       SUNNY     85  56  37 E7        30.10F
KEARNEY *      SUNNY     84  57  39 NE9       30.11S
YORK           MOSUNNY   81  64  57 NE3       30.10S
$$

NEZ011>018-030>034-042>045-012300-
NORTHEAST NEBRASKA

CITY           SKY/WX    TMP DP  RH WIND       PRES   REMARKS
NORFOLK        SUNNY     81  55  40 SE6       30.09S
ALBION         SUNNY     81  56  42 E6        30.11S
BLAIR          MOSUNNY   79  60  52 NE3       30.09S
COLUMBUS *     MOSUNNY   81  63  54 E10       30.09F
FREMONT        PTSUNNY   82  60  46 E6        30.09F
TEKAMAH        SUNNY     83  59  44 VRB5      30.08S
WAYNE          SUNNY     82  58  43 S3        30.09F
$$

NEZ050>053-065>068-078-088>093-012300-
SOUTHEAST NEBRASKA

CITY           SKY/WX    TMP DP  RH WIND       PRES   REMARKS
LINCOLN        MOSUNNY   83  61  47 E8        30.08S
OMAHA EPPLEY   MOSUNNY   83  61  47 NE10      30.08S
BEATRICE       MOSUNNY   82  65  57 NE12      30.05S
FALLS CITY     SUNNY     85  62  46 E10       30.05F
NEBRASKA CITY  SUNNY     81  58  45 E7        30.08S
PLATTSMOUTH    SUNNY     83  58  43 E6        30.08S
$$

NEZ044-045-051>053-067-012300-
OMAHA AREA

CITY           SKY/WX    TMP DP  RH WIND       PRES   REMARKS
OMAHA EPPLEY   MOSUNNY   83  61  47 NE10      30.08S
BLAIR          MOSUNNY   79  60  52 NE3       30.09S
FREMONT        PTSUNNY   82  60  46 E6        30.09F
MILLARD        PTSUNNY   84  62  46 E5        30.07F
OFFUTT AFB     MOSUNNY   83  64  52 NE7       30.07F
PLATTSMOUTH    SUNNY     83  58  43 E6        30.08S
WAHOO          FAIR      83  61  46 E7        30.08F
$$



USA.gov is the U.S. government's official web portal to all federal, state and local government web resources and services.